[[{"header":{"parameterUnit":"m.s-1","parameterCategory":1,"la1":30.2991,"la2":30.254,"lo1":-89.0895,"lo2":-89.0444,"dy":0.0017,"dx":0.0017,"nx":28,"ny":28,"refTime":"2023-03-20T15:00:00:Z","depth":0,"parameterNumber":2,"parameterNumberName":"U-component_of_WINDS"},"data":[0,0,0,0,0,0,0,0,0,0,0,0,0,0,0,0,0,0,0,0,0,0,0,0,0,0,0,0,0,0,0,0,0,0,0,0,0,0,0,0,0,0,0,0,0,0,0,0,0,0,0,0,0,0,0,0,0,0,-2.0276,-2.0278,0,-2.0474,-2.0476,-2.0478,-2.0552,-2.0551,-2.055,-2.055,-2.0757,-2.0763,-2.0769,0,0,0,0,0,0,0,0,0,0,0,0,0,-1.9967,-1.9972,-2.0276,-2.0278,-2.0281,-2.0473,-2.0476,-2.0479,-2.0552,-2.0551,-2.055,-2.0549,-2.0755,-2.0762,-2.0769,0,0,0,0,0,0,0,0,0,0,0,0,0,-2.0126,-1.9974,-2.0275,-2.034,-2.0348,-2.0473,-2.0476,-2.048,-2.0552,-2.0551,-2.055,-2.0549,-2.0752,-2.0761,-2.077,-2.0846,0,0,-2.0798,-2.0802,0,0,0,0,0,0,0,0,-2.0117,-2.0138,-2.0328,-2.0336,-2.0345,-2.0487,-2.0443,-2.0603,-2.0552,-2.0475,-2.055,-2.0548,-2.0668,-2.0684,-2.0723,-2.0856,-2.0865,-2.0799,-2.0805,-2.0809,-2.0811,0,0,0,0,0,0,0,-2.0106,-2.013,-2.0354,-2.0331,-2.0341,-2.0361,-2.0383,-2.0474,-2.0575,-2.0481,-2.0487,-2.0509,-2.0672,-2.0714,-2.0729,-2.0868,-2.0799,-2.0807,-2.0813,-2.0816,-2.1075,-2.1076,0,0,0,0,0,0,-2.0083,-2.012,-2.0348,-2.036,-2.0226,-2.0368,-2.0392,-2.0442,-2.0574,-2.0593,-2.051,-2.0512,-2.0699,-2.0718,-2.0736,-2.0835,-2.0808,-2.0817,-2.0822,-2.1074,-2.1075,-2.1077,0,0,0,0,0,0,-2.0076,-2.0103,-2.034,-2.0242,-2.0273,-2.0374,-2.043,-2.0447,-2.0489,-2.0595,-2.0614,-2.0534,-2.0699,-2.0723,-2.0819,-2.0843,-2.0821,-2.083,-2.1072,-2.1074,-2.1076,-2.1031,0,0,0,0,0,0,-2.0067,-2.01,-2.0129,-2.0242,-2.0278,-2.0417,-2.0432,-2.0451,-2.0504,-2.0508,-2.0623,-2.0641,-2.07,-2.0804,-2.0828,-2.0855,-2.0837,-2.107,-2.1073,-2.1075,-2.1031,-2.1032,-2.1032,0,0,0,0,0,-2.0056,-2.0109,-2.013,-2.0157,-2.0316,-2.0418,-2.0439,-2.0505,-2.0505,-2.0536,-2.0605,-2.0637,-2.0837,-2.0814,-2.084,-2.0871,-2.1069,-2.1072,-2.1075,-2.1031,-2.1032,-2.1032,0,0,0,0,0,0,-1.9998,-2.0125,-2.0149,-2.024,-2.0318,-2.043,-2.0471,-2.0504,-2.0584,-2.0585,-2.0665,-2.0691,-2.0779,-2.0835,-2.0807,-2.0953,-2.0955,-2.0964,-2.0912,-2.0914,-2.0914,-2.0899,-2.0844,0,0,0,0,0,-1.9995,-2.0066,-2.0174,-2.0244,-2.0282,-2.0369,-2.0416,-2.046,-2.0545,-2.0578,-2.0654,-2.0735,-2.0817,-2.0869,-2.0949,-2.104,-2.1067,-2.1075,-2.1075,-2.1075,-2.1081,-2.1134,-2.1139,-2.1087,-2.1087,-2.1087,0,0,-1.9991,-2.0069,-2.0109,-2.0234,-2.0299,-2.0373,-2.0396,-2.0473,-2.0528,-2.059,-2.0684,-2.0743,-2.084,-2.0933,-2.0978,-2.0982,-2.1102,-2.1079,-2.1078,-2.1085,-2.1138,-2.1143,-2.1147,-2.1089,-2.1089,-2.1088,0,0,-2.0021,-2.0087,-2.0152,-2.0217,-2.0315,-2.0373,-2.0389,-2.0497,-2.0538,-2.0633,-2.0682,-2.075,-2.0888,-2.0955,-2.1007,-2.1064,-2.1097,-2.1088,-2.109,-2.1141,-2.1145,-2.1149,-2.117,-2.1176,-2.1094,-2.1094,-2.1094,0,-2.0003,-2.0114,-2.0182,-2.0256,-2.031,-2.0369,-2.0437,-2.0497,-2.0617,-2.0653,-2.0656,-2.0831,-2.0901,-2.1011,-2.1024,-2.1065,-2.1086,-2.1075,-2.1139,-2.1144,-2.1149,-2.1169,-2.1176,-2.1093,-2.1093,-2.1093,-2.1093,0,-2.0088,-2.0164,-2.0206,-2.0318,-2.0377,-2.0448,-2.0528,-2.058,-2.062,-2.0678,-2.0776,-2.0861,-2.096,-2.099,-2.103,-2.1107,-2.1106,-2.1123,-2.1127,-2.1151,-2.1171,-2.1179,-2.109,-2.1091,-2.1091,-2.1092,0,0,-2.0085,-2.0235,-2.0249,-2.0301,-2.0414,-2.0475,-2.055,-2.0645,-2.0688,-2.077,-2.0835,-2.0951,-2.0967,-2.1027,-2.1075,-2.112,-2.1159,-2.1132,-2.1135,-2.1134,-2.125,-2.1236,-2.1243,-2.1183,-2.1184,-2.1186,-2.1242,0,-2.013,-2.0262,-2.0326,-2.0432,-2.0503,-2.0561,-2.0626,-2.0703,-2.076,-2.0831,-2.0895,-2.0976,-2.0992,-2.1028,-2.1075,-2.1144,-2.1184,-2.1142,-2.1245,-2.1248,-2.1218,-2.1254,-2.124,-2.1288,-2.125,-2.1251,-2.1252,0,-2.0199,-2.0278,-2.039,-2.0495,-2.0527,-2.0584,-2.0678,-2.0744,-2.0834,-2.0873,-2.0939,-2.0986,-2.1068,-2.1067,-2.1182,-2.1152,-2.1198,-2.1239,-2.1243,-2.1254,-2.1251,-2.1267,-2.1305,-2.1312,-2.1266,-2.1265,-2.1264,0,-2.0185,-2.032,-2.0405,-2.0448,-2.0573,-2.0611,-2.0665,-2.0754,-2.0808,-2.0891,-2.0926,-2.1018,-2.1068,-2.1139,-2.121,-2.1203,-2.1319,-2.1323,-2.1354,-2.1352,-2.1375,-2.1372,-2.1421,-2.1405,-2.1405,-2.1405,-2.1405,0,-2.0228,-2.0294,-2.04,-2.0452,-2.0529,-2.0603,-2.0677,-2.0736,-2.0815,-2.0881,-2.0937,-2.0998,-2.1089,-2.1162,-2.1219,-2.1305,-2.1328,-2.1362,-2.1377,-2.1357,-2.1352,-2.1388,-2.1386,-2.1407,-2.1407,-2.1406,-2.1406,0,-2.0225,-2.0299,-2.0395,-2.0505,-2.0534,-2.0586,-2.0681,-2.0735,-2.0795,-2.0878,-2.0901,-2.0997,-2.1085,-2.1164,-2.1282,-2.132,-2.1409,-2.1427,-2.1378,-2.1385,-2.1411,-2.1408,-2.1484,-2.1498,-2.1473,-2.1473,-2.1473,0,-2.0247,-2.0299,-2.0414,-2.0461,-2.0514,-2.059,-2.0644,-2.0721,-2.0776,-2.0883,-2.0924,-2.1016,-2.1094,-2.1234,-2.1315,-2.1406,-2.1426,-2.1447,-2.144,-2.1419,-2.1426,-2.1422,-2.1428,-2.1446,-2.1446,-2.1446,-2.1446,0,-2.0278,-2.0312,-2.0387,-2.0476,-2.054,-2.0614,-2.069,-2.0726,-2.0817,-2.0877,-2.0967,-2.1027,-2.1148,-2.1239,-2.1339,-2.1398,-2.1437,-2.1447,-2.1459,-2.1439,-2.1409,-2.1425,-2.1377,-2.1445,-2.1445,-2.1445,-2.1445,-2.1445,-2.0288,-2.0337,-2.0426,-2.0509,-2.0574,-2.0644,-2.0699,-2.0766,-2.0842,-2.0945,-2.0986,-2.1078,-2.1169,-2.1307,-2.1365,-2.144,-2.1447,-2.1464,-2.1469,-2.1472,-2.1468,-2.1397,-2.1459,-2.1459,-2.1459,-2.1459,-2.1459,0,-2.0322,-2.0382,-2.0457,-2.0561,-2.0627,-2.0657,-2.0743,-2.0796,-2.0876,-2.0956,-2.1032,-2.1137,-2.1226,-2.1314,-2.1409,-2.1452,-2.1473,-2.1474,-2.1472,-2.1485,-2.1457,-2.1437,-2.1456,-2.1456,-2.1456,-2.1456,-2.1456,-2.1456,-2.0347,-2.0431,-2.0476,-2.0594,-2.0655,-2.0744,-2.0791,-2.0856,-2.092,-2.1034,-2.1108,-2.1164,-2.1249,-2.135,-2.1434,-2.1458,-2.149,-2.1487,-2.1515,-2.1487,-2.1486,-2.1486,-2.1467,-2.1493,-2.1493,-2.1537,-2.1538,-2.1538]},{"header":{"parameterUnit":"m.s-1","parameterCategory":1,"la1":30.2991,"la2":30.254,"lo1":-89.0895,"lo2":-89.0444,"dy":0.0017,"dx":0.0017,"nx":28,"ny":28,"refTime":"2023-03-20T15:00:00:Z","depth":0,"parameterNumber":3,"parameterNumberName":"V-component_of_WINDS"},"data":[0,0,0,0,0,0,0,0,0,0,0,0,0,0,0,0,0,0,0,0,0,0,0,0,0,0,0,0,0,0,0,0,0,0,0,0,0,0,0,0,0,0,0,0,0,0,0,0,0,0,0,0,0,0,0,0,0,0,2.8778,2.8778,0,2.881,2.8811,2.8811,2.8757,2.8756,2.8754,2.8752,2.8782,2.8784,2.8787,0,0,0,0,0,0,0,0,0,0,0,0,0,2.8664,2.8666,2.8778,2.8778,2.8778,2.881,2.8811,2.8811,2.8758,2.8755,2.8753,2.8751,2.8781,2.8784,2.8787,0,0,0,0,0,0,0,0,0,0,0,0,0,2.8706,2.8667,2.8777,2.8756,2.8754,2.881,2.8811,2.8811,2.8758,2.8755,2.8753,2.875,2.878,2.8784,2.8787,2.8865,0,0,2.8799,2.88,0,0,0,0,0,0,0,0,2.8704,2.8711,2.8758,2.8757,2.8756,2.8777,2.8782,2.8829,2.8759,2.8757,2.8752,2.8749,2.8782,2.8786,2.8798,2.8867,2.8868,2.8799,2.8801,2.8803,2.8804,0,0,0,0,0,0,0,2.8701,2.8709,2.879,2.8759,2.8757,2.8743,2.8746,2.879,2.8784,2.8756,2.8753,2.8758,2.8781,2.8794,2.8798,2.8868,2.8799,2.8802,2.8805,2.8806,2.9001,2.9004,0,0,0,0,0,0,2.8701,2.8707,2.8789,2.8791,2.8723,2.8747,2.875,2.8773,2.8784,2.8783,2.876,2.8755,2.8789,2.8794,2.8799,2.8889,2.8803,2.8806,2.8809,2.8998,2.9002,2.9005,0,0,0,0,0,0,2.8699,2.8709,2.8788,2.8748,2.8757,2.8752,2.8778,2.8775,2.8788,2.8786,2.8784,2.8775,2.8787,2.8793,2.8849,2.8889,2.8808,2.8812,2.8995,2.8999,2.9003,2.9071,0,0,0,0,0,0,2.8696,2.8709,2.874,2.8749,2.8759,2.8839,2.878,2.8778,2.8795,2.8789,2.88,2.8799,2.8785,2.8844,2.8853,2.8893,2.8814,2.8991,2.8997,2.9002,2.9065,2.9078,2.9088,0,0,0,0,0,2.8692,2.8757,2.8742,2.8752,2.8798,2.8842,2.8847,2.8832,2.8799,2.8829,2.8827,2.8799,2.8884,2.885,2.886,2.8902,2.8988,2.8995,2.9001,2.906,2.9075,2.9088,0,0,0,0,0,0,2.8751,2.8758,2.8741,2.8811,2.8826,2.8833,2.887,2.8848,2.8872,2.8865,2.8844,2.8846,2.8906,2.8909,2.8871,2.8977,2.893,2.8939,2.8972,2.8986,2.8997,2.8994,2.8818,0,0,0,0,0,2.8773,2.8809,2.8813,2.8874,2.8883,2.8875,2.8894,2.888,2.8895,2.8901,2.8903,2.8917,2.8947,2.8967,2.8994,2.9066,2.9067,2.91,2.9111,2.912,2.9128,2.9164,2.9178,2.9026,2.9026,2.9026,0,0,2.8816,2.8825,2.8849,2.8886,2.8896,2.8933,2.8881,2.8922,2.8948,2.8906,2.8959,2.8961,2.8975,2.9039,2.9067,2.9044,2.917,2.9129,2.9136,2.9138,2.9172,2.9186,2.9199,2.9031,2.903,2.9029,0,0,2.8915,2.8926,2.8977,2.8989,2.9006,2.9,2.9013,2.9022,2.9023,2.9075,2.9044,2.9074,2.9127,2.9138,2.915,2.9252,2.9226,2.9262,2.9319,2.9355,2.9367,2.9377,2.9412,2.9425,2.9269,2.9269,2.927,0,2.8967,2.9022,2.9006,2.9049,2.9065,2.9031,2.9082,2.9093,2.9118,2.9129,2.9103,2.9167,2.9174,2.9239,2.9264,2.9276,2.9287,2.9259,2.9367,2.9377,2.9387,2.9419,2.9432,2.9273,2.9273,2.9273,2.9272,0,2.9084,2.9123,2.9162,2.9187,2.9208,2.9255,2.9245,2.9267,2.9252,2.9249,2.9302,2.931,2.9337,2.9352,2.9338,2.9414,2.9399,2.9371,2.9323,2.9405,2.9435,2.9448,2.9279,2.9278,2.9277,2.9276,0,0,2.9219,2.9235,2.925,2.926,2.9276,2.9305,2.9349,2.9377,2.9396,2.9414,2.9449,2.9495,2.9468,2.9482,2.9469,2.95,2.9578,2.9467,2.9467,2.9486,2.9661,2.9681,2.9696,2.9562,2.9564,2.9566,2.9659,0,2.9315,2.9393,2.938,2.9455,2.9489,2.9457,2.9495,2.9508,2.9506,2.9534,2.9531,2.9563,2.9527,2.9534,2.9565,2.9562,2.9612,2.9556,2.9592,2.9594,2.9588,2.9712,2.9733,2.982,2.9671,2.9673,2.9674,0,2.9438,2.9461,2.954,2.9549,2.9563,2.9598,2.9621,2.9649,2.9663,2.9659,2.9675,2.9655,2.9697,2.9651,2.9708,2.967,2.9684,2.9685,2.9688,2.9689,2.9638,2.9714,2.9848,2.986,2.9693,2.9691,2.969,0,2.9526,2.9577,2.963,2.964,2.9653,2.9678,2.9684,2.9695,2.9712,2.9733,2.9743,2.9769,2.9782,2.9801,2.9788,2.9756,2.9847,2.98,2.9843,2.9844,2.9862,2.9861,2.9998,2.9875,2.9875,2.9875,2.9874,0,2.9634,2.9682,2.967,2.9702,2.9755,2.9739,2.9792,2.9794,2.9804,2.9835,2.9808,2.9838,2.982,2.9847,2.9838,2.9885,2.9892,2.9889,2.9885,2.989,2.989,2.9897,2.989,2.9878,2.9877,2.9877,2.9876,0,2.974,2.9734,2.9789,2.9797,2.98,2.9839,2.9844,2.9874,2.987,2.991,2.9918,2.9912,2.9943,2.9932,2.9966,2.9959,3.0019,3.0008,3.0015,3.0011,3.0054,3.005,3.02,3.0218,3.0085,3.0086,3.0087,0,2.9808,2.9845,2.9857,2.9876,2.9885,2.9916,2.9934,2.9919,2.9938,2.9956,2.9983,3.0012,3.0034,3.0085,3.0083,3.0107,3.0096,3.0147,3.0099,3.0103,3.0094,3.0092,3.0094,3.0156,3.0157,3.0159,3.016,0,2.9929,2.9924,2.9951,2.9977,2.9999,3.0019,3.0036,3.0053,3.0039,3.0062,3.0093,3.0111,3.0145,3.0173,3.0195,3.02,3.0177,3.0175,3.0186,3.019,3.0191,3.0189,3.0038,3.0171,3.017,3.0169,3.0168,3.0168,3.0017,3.0048,3.0061,3.0091,3.0103,3.0119,3.0146,3.0147,3.0173,3.02,3.019,3.0226,3.0237,3.0265,3.0273,3.03,3.028,3.0296,3.03,3.0304,3.0308,3.0189,3.0304,3.0304,3.0303,3.0303,3.0303,0,3.0135,3.0141,3.017,3.0195,3.0218,3.0197,3.0214,3.0235,3.0267,3.028,3.0303,3.0338,3.0366,3.0366,3.0391,3.0412,3.0402,3.0419,3.0416,3.0417,3.0326,3.0313,3.0427,3.0427,3.0427,3.0427,3.0427,3.0427,3.0199,3.0249,3.0245,3.03,3.0306,3.0342,3.0353,3.0367,3.0378,3.0419,3.0442,3.0442,3.045,3.0475,3.0498,3.0497,3.0507,3.0527,3.0523,3.0436,3.0424,3.0412,3.04,3.053,3.053,3.0612,3.0612,3.0613]}]]